Time,TemperatureF,DewpointF,PressureIn,WindDirection,WindDirectionDegrees,WindSpeedMPH,WindSpeedGustMPH,Humidity,HourlyPrecipIn,Conditions,Clouds,dailyrainin,SoftwareType,DateUTC
2013-03-04 00:01:00,48.0,43.0,29.87,ESE,119,0.0,-999.0,84,-99.99,,,-99.99,,2013-03-04 08:01:00,
2013-03-04 00:11:00,48.0,43.0,29.87,ESE,119,0.0,-999.0,84,-99.99,,,-99.99,,2013-03-04 08:11:00,
2013-03-04 00:21:00,48.0,44.0,29.87,ESE,119,0.0,-999.0,85,-99.99,,,-99.99,,2013-03-04 08:21:00,
2013-03-04 00:31:00,48.0,44.0,29.87,ESE,119,0.0,-999.0,85,-99.99,,,-99.99,,2013-03-04 08:31:00,
2013-03-04 00:41:00,48.0,44.0,29.87,ESE,119,0.0,-999.0,85,-99.99,,,-99.99,,2013-03-04 08:41:00,
2013-03-04 00:52:00,48.0,43.0,29.87,ESE,119,0.0,-999.0,84,-99.99,,,-99.99,,2013-03-04 08:52:00,
2013-03-04 01:01:00,48.0,44.0,29.88,ESE,119,0.0,-999.0,85,-99.99,,,-99.99,,2013-03-04 09:01:00,
2013-03-04 01:11:00,48.0,44.0,29.88,ESE,119,0.0,-999.0,85,-99.99,,,-99.99,,2013-03-04 09:11:00,
2013-03-04 01:21:00,47.0,43.0,29.88,ESE,119,0.0,-999.0,85,-99.99,,,-99.99,,2013-03-04 09:21:00,
2013-03-04 01:31:00,47.0,43.0,29.88,ESE,119,0.0,-999.0,85,-99.99,,,-99.99,,2013-03-04 09:31:00,
2013-03-04 01:42:00,47.0,43.0,29.88,ESE,119,0.0,-999.0,85,-99.99,,,-99.99,,2013-03-04 09:42:00,
2013-03-04 01:51:00,47.0,43.0,29.88,ESE,119,0.0,-999.0,86,-99.99,,,-99.99,,2013-03-04 09:51:00,
2013-03-04 02:01:00,47.0,43.0,29.88,ESE,119,0.0,-999.0,86,-99.99,,,-99.99,,2013-03-04 10:01:00,
2013-03-04 02:11:00,47.0,43.0,29.88,ESE,119,0.0,-999.0,86,-99.99,,,-99.99,,2013-03-04 10:11:00,
2013-03-04 02:21:00,47.0,43.0,29.89,ESE,119,0.0,-999.0,85,-99.99,,,-99.99,,2013-03-04 10:21:00,
2013-03-04 02:31:00,46.0,42.0,29.89,ESE,119,0.0,-999.0,87,-99.99,,,-99.99,,2013-03-04 10:31:00,
2013-03-04 02:42:00,46.0,42.0,29.89,ESE,119,0.0,-999.0,87,-99.99,,,-99.99,,2013-03-04 10:42:00,
2013-03-04 02:52:00,46.0,42.0,29.89,ESE,119,0.0,-999.0,86,-99.99,,,-99.99,,2013-03-04 10:52:00,
2013-03-04 03:01:00,46.0,42.0,29.89,ESE,119,0.0,-999.0,86,-99.99,,,-99.99,,2013-03-04 11:01:00,
2013-03-04 03:11:00,46.0,42.0,29.89,ESE,119,0.0,-999.0,86,-99.99,,,-99.99,,2013-03-04 11:11:00,
2013-03-04 03:21:00,45.0,41.0,29.88,ESE,119,0.0,-999.0,86,-99.99,,,-99.99,,2013-03-04 11:21:00,
2013-03-04 03:31:00,45.0,41.0,29.89,ESE,119,0.0,-999.0,87,-99.99,,,-99.99,,2013-03-04 11:31:00,
2013-03-04 03:41:00,45.0,41.0,29.89,ESE,119,0.0,-999.0,87,-99.99,,,-99.99,,2013-03-04 11:41:00,
2013-03-04 03:52:00,45.0,42.0,29.89,ESE,119,0.0,-999.0,89,-99.99,,,-99.99,,2013-03-04 11:52:00,
2013-03-04 04:01:00,45.0,42.0,29.89,ESE,119,0.0,-999.0,88,-99.99,,,-99.99,,2013-03-04 12:01:00,
2013-03-04 04:11:00,45.0,42.0,29.89,ESE,119,0.0,-999.0,88,-99.99,,,-99.99,,2013-03-04 12:11:00,
2013-03-04 04:22:00,44.0,41.0,29.89,ESE,119,0.0,-999.0,89,-99.99,,,-99.99,,2013-03-04 12:22:00,
2013-03-04 04:32:00,44.0,41.0,29.89,ESE,119,0.0,-999.0,88,-99.99,,,-99.99,,2013-03-04 12:32:00,
2013-03-04 04:42:00,44.0,41.0,29.89,ESE,119,0.0,-999.0,88,-99.99,,,-99.99,,2013-03-04 12:42:00,
2013-03-04 04:52:00,44.0,41.0,29.89,ESE,119,0.0,-999.0,89,-99.99,,,-99.99,,2013-03-04 12:52:00,
2013-03-04 05:02:00,44.0,41.0,29.89,ESE,119,0.0,-999.0,89,-99.99,,,-99.99,,2013-03-04 13:02:00,
2013-03-04 05:11:00,44.0,41.0,29.89,ESE,119,0.0,-999.0,89,-99.99,,,-99.99,,2013-03-04 13:11:00,
2013-03-04 05:21:00,44.0,40.0,29.90,ESE,119,0.0,-999.0,87,-99.99,,,-99.99,,2013-03-04 13:21:00,
2013-03-04 05:31:00,44.0,41.0,29.90,ESE,119,0.0,-999.0,90,-99.99,,,-99.99,,2013-03-04 13:31:00,
2013-03-04 05:41:00,44.0,41.0,29.90,ESE,119,0.0,-999.0,90,-99.99,,,-99.99,,2013-03-04 13:41:00,
2013-03-04 05:51:00,44.0,41.0,29.91,ESE,119,0.0,-999.0,89,-99.99,,,-99.99,,2013-03-04 13:51:00,
2013-03-04 06:01:00,43.0,40.0,29.90,ESE,119,0.0,-999.0,88,-99.99,,,-99.99,,2013-03-04 14:01:00,
2013-03-04 06:11:00,43.0,40.0,29.90,ESE,119,0.0,-999.0,88,-99.99,,,-99.99,,2013-03-04 14:11:00,
2013-03-04 06:21:00,43.0,40.0,29.90,ESE,119,0.0,-999.0,89,-99.99,,,-99.99,,2013-03-04 14:21:00,
2013-03-04 06:32:00,43.0,40.0,29.90,ESE,119,0.0,-999.0,90,-99.99,,,-99.99,,2013-03-04 14:32:00,
2013-03-04 06:41:00,43.0,40.0,29.90,ESE,119,0.0,-999.0,90,-99.99,,,-99.99,,2013-03-04 14:41:00,
2013-03-04 06:52:00,43.0,40.0,29.91,ESE,119,0.0,-999.0,90,-99.99,,,-99.99,,2013-03-04 14:52:00,
2013-03-04 07:01:00,43.0,40.0,29.92,ESE,119,0.0,-999.0,90,-99.99,,,-99.99,,2013-03-04 15:01:00,
2013-03-04 07:11:00,43.0,40.0,29.92,ESE,119,0.0,-999.0,90,-99.99,,,-99.99,,2013-03-04 15:11:00,
2013-03-04 07:21:00,43.0,40.0,29.93,ESE,119,0.0,-999.0,90,-99.99,,,-99.99,,2013-03-04 15:21:00,
2013-03-04 07:31:00,43.0,40.0,29.93,ESE,119,0.0,-999.0,89,-99.99,,,-99.99,,2013-03-04 15:31:00,
2013-03-04 07:41:00,43.0,40.0,29.93,ESE,119,0.0,-999.0,89,-99.99,,,-99.99,,2013-03-04 15:41:00,
2013-03-04 07:51:00,43.0,41.0,29.93,ESE,119,0.0,-999.0,91,-99.99,,,-99.99,,2013-03-04 15:51:00,
2013-03-04 08:02:00,44.0,42.0,29.94,ESE,119,0.0,-999.0,92,-99.99,,,-99.99,,2013-03-04 16:02:00,
2013-03-04 08:11:00,44.0,42.0,29.94,ESE,119,0.0,-999.0,92,-99.99,,,-99.99,,2013-03-04 16:11:00,
2013-03-04 08:21:00,46.0,44.0,29.94,ESE,119,0.0,-999.0,91,-99.99,,,-99.99,,2013-03-04 16:21:00,
2013-03-04 08:31:00,48.0,45.0,29.93,ESE,119,0.0,-999.0,89,-99.99,,,-99.99,,2013-03-04 16:31:00,
2013-03-04 08:41:00,48.0,45.0,29.93,ESE,119,0.0,-999.0,89,-99.99,,,-99.99,,2013-03-04 16:41:00,
2013-03-04 08:52:00,50.0,46.0,29.93,ESE,119,0.0,-999.0,86,-99.99,,,-99.99,,2013-03-04 16:52:00,
2013-03-04 09:02:00,52.0,47.0,29.94,ESE,119,0.0,-999.0,82,-99.99,,,-99.99,,2013-03-04 17:02:00,
2013-03-04 09:11:00,52.0,47.0,29.94,ESE,119,0.0,-999.0,82,-99.99,,,-99.99,,2013-03-04 17:11:00,
2013-03-04 09:21:00,54.0,48.0,29.94,ENE,67,0.0,-999.0,79,-99.99,,,-99.99,,2013-03-04 17:21:00,
2013-03-04 09:31:00,56.0,49.0,29.95,ENE,78,0.0,-999.0,76,-99.99,,,-99.99,,2013-03-04 17:31:00,
2013-03-04 09:42:00,56.0,49.0,29.95,ENE,78,0.0,-999.0,76,-99.99,,,-99.99,,2013-03-04 17:42:00,
2013-03-04 09:52:00,57.0,48.0,29.96,NE,48,0.0,-999.0,73,-99.99,,,-99.99,,2013-03-04 17:52:00,
2013-03-04 10:01:00,58.0,50.0,29.95,East,99,0.0,-999.0,74,-99.99,,,-99.99,,2013-03-04 18:01:00,
2013-03-04 10:11:00,58.0,50.0,29.95,East,99,0.0,-999.0,74,-99.99,,,-99.99,,2013-03-04 18:11:00,
2013-03-04 10:21:00,59.0,50.0,29.95,East,98,0.0,-999.0,71,-99.99,,,-99.99,,2013-03-04 18:21:00,
2013-03-04 10:32:00,60.0,49.0,29.95,ESE,119,0.0,-999.0,68,-99.99,,,-99.99,,2013-03-04 18:32:00,
2013-03-04 10:42:00,60.0,49.0,29.95,ESE,119,0.0,-999.0,68,-99.99,,,-99.99,,2013-03-04 18:42:00,
2013-03-04 10:52:00,61.0,50.0,29.95,East,93,1.0,-999.0,66,-99.99,,,-99.99,,2013-03-04 18:52:00,
2013-03-04 11:01:00,63.0,49.0,29.93,East,93,0.0,-999.0,61,-99.99,,,-99.99,,2013-03-04 19:01:00,
2013-03-04 11:11:00,63.0,49.0,29.93,East,93,0.0,-999.0,61,-99.99,,,-99.99,,2013-03-04 19:11:00,
2013-03-04 11:21:00,64.0,48.0,29.93,East,94,1.0,-999.0,57,-99.99,,,-99.99,,2013-03-04 19:21:00,
2013-03-04 11:31:00,65.0,50.0,29.93,ESE,109,0.0,-999.0,59,-99.99,,,-99.99,,2013-03-04 19:31:00,
2013-03-04 11:42:00,65.0,50.0,29.93,ESE,109,0.0,-999.0,59,-99.99,,,-99.99,,2013-03-04 19:42:00,
2013-03-04 11:51:00,65.0,50.0,29.93,ENE,72,1.0,-999.0,58,-99.99,,,-99.99,,2013-03-04 19:51:00,
2013-03-04 12:01:00,66.0,48.0,29.94,ESE,117,1.0,-999.0,53,-99.99,,,-99.99,,2013-03-04 20:01:00,
2013-03-04 12:11:00,67.0,47.0,29.93,ESE,104,1.0,-999.0,48,-99.99,,,-99.99,,2013-03-04 20:11:00,
2013-03-04 12:21:00,67.0,47.0,29.93,ESE,104,1.0,-999.0,48,-99.99,,,-99.99,,2013-03-04 20:21:00,
2013-03-04 12:32:00,68.0,47.0,29.93,NE,40,1.0,-999.0,47,-99.99,,,-99.99,,2013-03-04 20:32:00,
2013-03-04 12:41:00,68.0,47.0,29.93,NE,40,1.0,-999.0,47,-99.99,,,-99.99,,2013-03-04 20:41:00,
2013-03-04 12:52:00,68.0,45.0,29.92,NE,49,1.0,-999.0,44,-99.99,,,-99.99,,2013-03-04 20:52:00,
2013-03-04 13:01:00,69.0,48.0,29.91,East,87,1.0,-999.0,48,-99.99,,,-99.99,,2013-03-04 21:01:00,
2013-03-04 13:11:00,69.0,48.0,29.91,East,87,1.0,-999.0,48,-99.99,,,-99.99,,2013-03-04 21:11:00,
2013-03-04 13:21:00,69.0,48.0,29.90,ENE,61,1.0,-999.0,48,-99.99,,,-99.99,,2013-03-04 21:21:00,
2013-03-04 13:31:00,69.0,50.0,29.89,East,96,1.0,-999.0,51,-99.99,,,-99.99,,2013-03-04 21:31:00,
2013-03-04 13:42:00,69.0,50.0,29.89,East,96,1.0,-999.0,51,-99.99,,,-99.99,,2013-03-04 21:42:00,
2013-03-04 13:52:00,69.0,50.0,29.89,ESE,114,1.0,-999.0,50,-99.99,,,-99.99,,2013-03-04 21:52:00,
2013-03-04 14:01:00,70.0,49.0,29.88,NE,52,1.0,-999.0,48,-99.99,,,-99.99,,2013-03-04 22:01:00,
2013-03-04 14:11:00,70.0,49.0,29.88,NE,52,1.0,-999.0,48,-99.99,,,-99.99,,2013-03-04 22:11:00,
2013-03-04 14:21:00,70.0,50.0,29.88,East,82,1.0,-999.0,49,-99.99,,,-99.99,,2013-03-04 22:21:00,
2013-03-04 14:31:00,70.0,50.0,29.88,ESE,115,1.0,-999.0,50,-99.99,,,-99.99,,2013-03-04 22:31:00,
2013-03-04 14:42:00,70.0,50.0,29.88,ESE,115,1.0,-999.0,50,-99.99,,,-99.99,,2013-03-04 22:42:00,
2013-03-04 14:51:00,69.0,50.0,29.89,NE,41,2.0,-999.0,50,-99.99,,,-99.99,,2013-03-04 22:51:00,
2013-03-04 15:01:00,69.0,51.0,29.89,ENE,78,1.0,-999.0,52,-99.99,,,-99.99,,2013-03-04 23:01:00,
2013-03-04 15:11:00,69.0,51.0,29.89,ENE,78,1.0,-999.0,52,-99.99,,,-99.99,,2013-03-04 23:11:00,
2013-03-04 15:21:00,67.0,50.0,29.89,NE,49,1.0,-999.0,54,-99.99,,,-99.99,,2013-03-04 23:21:00,
2013-03-04 15:31:00,67.0,49.0,29.89,NE,43,1.0,-999.0,53,-99.99,,,-99.99,,2013-03-04 23:31:00,
2013-03-04 15:41:00,67.0,49.0,29.89,NE,43,1.0,-999.0,53,-99.99,,,-99.99,,2013-03-04 23:41:00,
2013-03-04 15:52:00,68.0,49.0,29.88,ESE,111,0.0,-999.0,51,-99.99,,,-99.99,,2013-03-04 23:52:00,
2013-03-04 16:01:00,68.0,49.0,29.88,ESE,105,0.0,-999.0,51,-99.99,,,-99.99,,2013-03-05 00:01:00,
2013-03-04 16:11:00,68.0,49.0,29.88,ESE,105,0.0,-999.0,51,-99.99,,,-99.99,,2013-03-05 00:11:00,
2013-03-04 16:21:00,68.0,49.0,29.88,ESE,108,1.0,-999.0,51,-99.99,,,-99.99,,2013-03-05 00:21:00,
2013-03-04 16:32:00,67.0,48.0,29.88,ENE,65,0.0,-999.0,51,-99.99,,,-99.99,,2013-03-05 00:32:00,
2013-03-04 16:41:00,67.0,48.0,29.88,ENE,65,0.0,-999.0,51,-99.99,,,-99.99,,2013-03-05 00:41:00,
2013-03-04 16:51:00,67.0,48.0,29.87,ESE,110,0.0,-999.0,51,-99.99,,,-99.99,,2013-03-05 00:51:00,
2013-03-04 17:01:00,67.0,48.0,29.88,ENE,74,0.0,-999.0,51,-99.99,,,-99.99,,2013-03-05 01:01:00,
2013-03-04 17:11:00,67.0,48.0,29.88,ENE,74,0.0,-999.0,51,-99.99,,,-99.99,,2013-03-05 01:11:00,
2013-03-04 17:21:00,67.0,48.0,29.88,ENE,64,0.0,-999.0,50,-99.99,,,-99.99,,2013-03-05 01:21:00,
2013-03-04 17:32:00,65.0,48.0,29.89,ENE,64,0.0,-999.0,54,-99.99,,,-99.99,,2013-03-05 01:32:00,
2013-03-04 17:41:00,65.0,48.0,29.89,ENE,64,0.0,-999.0,54,-99.99,,,-99.99,,2013-03-05 01:41:00,
2013-03-04 17:51:00,63.0,48.0,29.90,NE,55,0.0,-999.0,58,-99.99,,,-99.99,,2013-03-05 01:51:00,
2013-03-04 18:01:00,62.0,48.0,29.91,ENE,63,0.0,-999.0,60,-99.99,,,-99.99,,2013-03-05 02:01:00,
2013-03-04 18:11:00,62.0,48.0,29.91,ENE,63,0.0,-999.0,60,-99.99,,,-99.99,,2013-03-05 02:11:00,
2013-03-04 18:21:00,60.0,47.0,29.91,ENE,71,0.0,-999.0,63,-99.99,,,-99.99,,2013-03-05 02:21:00,
2013-03-04 18:32:00,58.0,47.0,29.92,ENE,57,0.0,-999.0,67,-99.99,,,-99.99,,2013-03-05 02:32:00,
2013-03-04 18:41:00,58.0,47.0,29.92,ENE,57,0.0,-999.0,67,-99.99,,,-99.99,,2013-03-05 02:41:00,
2013-03-04 18:52:00,57.0,47.0,29.93,ENE,60,0.0,-999.0,70,-99.99,,,-99.99,,2013-03-05 02:52:00,
2013-03-04 19:01:00,56.0,47.0,29.93,ENE,60,0.0,-999.0,73,-99.99,,,-99.99,,2013-03-05 03:01:00,
2013-03-04 19:11:00,56.0,47.0,29.93,ENE,60,0.0,-999.0,73,-99.99,,,-99.99,,2013-03-05 03:11:00,
2013-03-04 19:21:00,56.0,48.0,29.93,ENE,60,0.0,-999.0,75,-99.99,,,-99.99,,2013-03-05 03:21:00,
2013-03-04 19:31:00,55.0,48.0,29.94,ENE,60,0.0,-999.0,76,-99.99,,,-99.99,,2013-03-05 03:31:00,
2013-03-04 19:41:00,55.0,48.0,29.94,ENE,60,0.0,-999.0,76,-99.99,,,-99.99,,2013-03-05 03:41:00,
2013-03-04 19:51:00,54.0,47.0,29.94,ENE,60,0.0,-999.0,76,-99.99,,,-99.99,,2013-03-05 03:51:00,
2013-03-04 20:01:00,53.0,46.0,29.95,ENE,60,0.0,-999.0,76,-99.99,,,-99.99,,2013-03-05 04:01:00,
2013-03-04 20:11:00,53.0,46.0,29.95,ENE,60,0.0,-999.0,76,-99.99,,,-99.99,,2013-03-05 04:11:00,
2013-03-04 20:21:00,52.0,45.0,29.95,ENE,60,0.0,-999.0,76,-99.99,,,-99.99,,2013-03-05 04:21:00,
2013-03-04 20:31:00,52.0,45.0,29.95,ENE,60,0.0,-999.0,77,-99.99,,,-99.99,,2013-03-05 04:31:00,
2013-03-04 20:41:00,52.0,45.0,29.95,ENE,60,0.0,-999.0,77,-99.99,,,-99.99,,2013-03-05 04:41:00,
2013-03-04 20:51:00,51.0,45.0,29.95,ENE,60,0.0,-999.0,79,-99.99,,,-99.99,,2013-03-05 04:51:00,
2013-03-04 21:01:00,50.0,44.0,29.96,ENE,60,0.0,-999.0,80,-99.99,,,-99.99,,2013-03-05 05:01:00,
2013-03-04 21:11:00,50.0,44.0,29.96,ENE,60,0.0,-999.0,80,-99.99,,,-99.99,,2013-03-05 05:11:00,
2013-03-04 21:22:00,50.0,44.0,29.96,ENE,60,0.0,-999.0,81,-99.99,,,-99.99,,2013-03-05 05:22:00,
2013-03-04 21:31:00,49.0,43.0,29.96,ENE,60,0.0,-999.0,81,-99.99,,,-99.99,,2013-03-05 05:31:00,
2013-03-04 21:41:00,49.0,43.0,29.96,ENE,60,0.0,-999.0,81,-99.99,,,-99.99,,2013-03-05 05:41:00,
2013-03-04 21:52:00,49.0,43.0,29.96,ENE,60,0.0,-999.0,81,-99.99,,,-99.99,,2013-03-05 05:52:00,
2013-03-04 22:01:00,49.0,43.0,29.96,ENE,60,0.0,-999.0,81,-99.99,,,-99.99,,2013-03-05 06:01:00,
2013-03-04 22:11:00,49.0,43.0,29.96,ENE,60,0.0,-999.0,81,-99.99,,,-99.99,,2013-03-05 06:11:00,
2013-03-04 22:22:00,49.0,43.0,29.96,ENE,60,0.0,-999.0,81,-99.99,,,-99.99,,2013-03-05 06:22:00,
2013-03-04 22:31:00,49.0,44.0,29.96,ENE,60,0.0,-999.0,82,-99.99,,,-99.99,,2013-03-05 06:31:00,
2013-03-04 22:41:00,49.0,44.0,29.96,ENE,60,0.0,-999.0,82,-99.99,,,-99.99,,2013-03-05 06:41:00,
2013-03-04 22:52:00,49.0,43.0,29.96,ENE,60,0.0,-999.0,81,-99.99,,,-99.99,,2013-03-05 06:52:00,
2013-03-04 23:01:00,49.0,43.0,29.96,ENE,60,0.0,-999.0,80,-99.99,,,-99.99,,2013-03-05 07:01:00,
2013-03-04 23:11:00,49.0,43.0,29.96,ENE,60,0.0,-999.0,80,-99.99,,,-99.99,,2013-03-05 07:11:00,
2013-03-04 23:21:00,49.0,43.0,29.96,ENE,60,0.0,-999.0,81,-99.99,,,-99.99,,2013-03-05 07:21:00,
2013-03-04 23:31:00,48.0,42.0,29.95,ENE,60,0.0,-999.0,81,-99.99,,,-99.99,,2013-03-05 07:31:00,
2013-03-04 23:41:00,48.0,42.0,29.95,ENE,60,0.0,-999.0,81,-99.99,,,-99.99,,2013-03-05 07:41:00,
2013-03-04 23:51:00,48.0,43.0,29.95,ENE,60,0.0,-999.0,82,-99.99,,,-99.99,,2013-03-05 07:51:00,